Terug naar catalogus

CZ-6A DEB

ActiefPO
NORAD 60890·DEBRIS·🇨🇳 China

Gelanceerd Aug 6, 2024 vanaf Taiyuan Satellite Launch Center

Loading…

Volgende Passages (komende 24 uur)

TLE

VersSource: Space-Track

Epoch: Sep 14, 2026, 10:05 UTC

1 60890U 24140KV  26257.42046459  .00007542  00000-0  11022-2 0  9996
2 60890  88.9988 258.4340 0073169 276.6224  82.6671 14.73790759110639

Volg CZ-6A DEB in realtime met AllMySat

Download on the App Store